Regional Weather Roundup
Issued by NWS Kansas City/Pleasant Hill, MO

Home | Current Version | Previous Version | Text Only | Print | Product List | Glossary On
Versions: 1 2 3 4 5 6 7 8 9 10 11 12 13 14 15 16 17 18 19 20 21 22 23 24 25 26 27 28 29 30 31 32 33 34 35 36 37 38 39 40 41 42 43 44 45 46 47 48 49
000
ASUS43 KEAX 071810
RWREAX

WEATHER ROUNDUP FOR EASTERN KANSAS AND NORTHWEST MISSOURI
NATIONAL WEATHER SERVICE KANSAS CITY/PLEASANT HILL MO
100 PM CDT TUE JUL 07 2015

KSZ040-057-103>105-MOZ028-029-037-043-071900-
...KANSAS CITY METROPOLITAN AREA...

CITY           SKY/WX    TMP DP  RH WIND       PRES   REMARKS
K.C. INTL      CLOUDY    70  60  70 N12G23    30.08S HAZE
6HR MIN TEMP:  63; 6HR MAX TEMP:  71;

K.C. DOWNTOWN  PTSUNNY   73  60  63 N10       30.06F HAZE
6HR MIN TEMP:  65; 6HR MAX TEMP:  73; 6HR PCP: TRACE;

LEES SUMMIT    CLOUDY    71  59  65 NE15      30.07S
6HR MIN TEMP:  61; 6HR MAX TEMP:  71;

OLATHE - IXD   CLOUDY    70  60  70 N15       30.07F HAZE
6HR MIN TEMP:  62; 6HR MAX TEMP:  70; 6HR PCP:  0.04;

OLATHE - OJC   CLOUDY    70  58  65 NE14      30.06F HAZE
6HR MIN TEMP:  61; 6HR MAX TEMP:  71; 6HR PCP:  0.01;

LAWRENCE       PTSUNNY   72  59  63 NE10      30.08F HAZE

$$

MOZ001>008-011>017-020>025-030>033-038>040-044>046-053-054-071900-
...NORTHERN AND CENTRAL MISSOURI...

CITY           SKY/WX    TMP DP  RH WIND       PRES   REMARKS
ST. JOSEPH     CLOUDY    70  59  68 NE8       30.09F
6HR MIN TEMP:  62; 6HR MAX TEMP:  70;

MOSBY            N/A     72  59  64 N10       30.07S
WARRENSBURG    CLOUDY    68  59  73 N8        30.04S HAZE
WHITEMAN AFB   DRIZZLE   68  60  76 N15       30.03S FOG
6HR MIN TEMP:  63; 6HR MAX TEMP:  68;

CLINTON        DRIZZLE   64  63  94 NE13      30.04S
SEDALIA        CLOUDY    69  61  75 N13       30.04F HAZE
6HR MIN TEMP:  64; 6HR MAX TEMP:  69;

WARSAW         NOT AVBL
CHILLICOTHE      N/A     73  60  63 N9        30.07F
6HR MIN TEMP:  65; 6HR MAX TEMP:  74;

KIRKSVILLE     MOSUNNY   73  59  61 NE13      30.07S HAZE
6HR MIN TEMP:  63; 6HR MAX TEMP:  73; 6HR PCP: TRACE;


$$

MOZ041-047>049-056>058-063>065-088>090-097-071900-
...EASTERN AND SOUTHERN MISSOURI...

CITY           SKY/WX    TMP DP  RH WIND       PRES   REMARKS
ST. LOUIS INTL LGT RAIN  71  66  84 N8        30.00R
6HR MIN TEMP:  70; 6HR MAX TEMP:  76; 6HR PCP:  0.03;

SPIRIT OF STL  LGT RAIN  70  67  90 N9        29.99R FOG
COLUMBIA       CLOUDY    66  63  90 N10       30.03S FOG
ROLLA          LGT RAIN  68  67  96 N10       29.99S FOG
OSAGE BEACH    CLOUDY    66  64  94 N6        30.01S
SPRINGFIELD    CLOUDY    75  71  87 S9        29.99S
BRANSON        LGT RAIN  70  70 100 S7        30.03F
JOPLIN         CLOUDY    66  64  93 N7        30.03R FOG
WEST PLAINS    LGT RAIN  73  70  90 W8        30.02S

$$

IAZ060-094-KSZ022-034>040-054-083-096-NEZ052-066-093-071900-
...KANSAS...SOUTHEAST NEBRASKA AND IOWA...

CITY           SKY/WX    TMP DP  RH WIND       PRES   REMARKS
TOPEKA         PTSUNNY   70  59  68 N8        30.10S
6HR MIN TEMP:  63; 6HR MAX TEMP:  71;

MANHATTAN      MOSUNNY   72  51  47 NE15G23   30.11F
EMPORIA        CLOUDY    69  57  65 N15G22    30.08S
CHANUTE        LGT RAIN  66  64  93 N12       30.05S FOG
WICHITA        CLOUDY    68  59  73 N12       30.09S
OMAHA          MOSUNNY   69  51  52 NE9       30.14F
LINCOLN        SUNNY     71  50  47 NE14G22   30.16F
FALLS CITY     MOSUNNY   70  53  54 N14G20    30.12S
LAMONI         MOSUNNY   71  57  61 NE9G17    30.10R
DES MOINES     MOSUNNY   70  50  49 N12       30.10F

$$



USA.gov is the U.S. government's official web portal to all federal, state and local government web resources and services.